Location: De Greiden
(52.9496°N, 5.9137°E)
Time: 23:27:31
(UTC+00:00)

Cosmos 1844 - Pass Details

Date: 24 January 2021
Orbit: 821 x 869 km, 70.9° (Epoch: 01 March)

Event Time Altitude Azimuth Distance (km) Brightness Sun altitude
Rises 18:35:00 0° 222° (SW) 3,390 7.5 -22.0°
Reaches altitude 10° 18:37:27 10° 226° (SW) 2,466 6.7 -22.4°
Maximum altitude 18:43:04 62° 307° (NW) 961 4.1 -23.2°
Enters shadow 18:46:43 23° 22° (NNE) 1,769 5.1 -23.8°
